,,PressureMeas_1m,,PRMeasQMR101_1,,RHStat155_1m_1,,SRMeasQMS101R_1m,,TAStat155_1m_1,,GenWind_1,,GenWind_1,
2017-07-30, 07:00:06,VALID,917.83,VALID,0.0,VALID,91.239,VALID,81.136,VALID,18.553,VALID,140.0,VALID,1.953,
2017-07-30, 07:01:06,VALID,917.847,VALID,0.0,VALID,91.495,VALID,83.248,VALID,18.488,VALID,142.0,VALID,2.057,
2017-07-30, 07:02:06,VALID,917.845,VALID,0.0,VALID,91.348,VALID,86.094,VALID,18.502,VALID,140.0,VALID,2.008,
2017-07-30, 07:03:06,VALID,917.847,VALID,0.0,VALID,91.199,VALID,88.017,VALID,18.556,VALID,140.0,VALID,1.92,
2017-07-30, 07:04:06,VALID,917.846,VALID,0.0,VALID,91.39,VALID,88.611,VALID,18.534,VALID,136.0,VALID,1.729,
2017-07-30, 07:05:06,VALID,917.84,VALID,0.0,VALID,91.814,VALID,90.507,VALID,18.5,VALID,138.0,VALID,1.449,
2017-07-30, 07:06:06,VALID,917.834,VALID,0.0,VALID,92.03,VALID,94.02,VALID,18.494,VALID,132.0,VALID,1.406,
2017-07-30, 07:07:06,VALID,917.822,VALID,0.0,VALID,92.048,VALID,98.83,VALID,18.536,VALID,127.0,VALID,1.0,
2017-07-30, 07:08:06,VALID,917.814,VALID,0.0,VALID,92.025,VALID,102.968,VALID,18.601,VALID,123.0,VALID,1.395,
2017-07-30, 07:09:06,VALID,917.812,VALID,0.0,VALID,92.226,VALID,106.797,VALID,18.686,VALID,121.0,VALID,0.983,
2017-07-30, 07:10:06,VALID,917.802,VALID,0.0,VALID,91.935,VALID,110.843,VALID,18.737,VALID,114.0,VALID,1.179,
2017-07-30, 07:11:06,VALID,917.809,VALID,0.0,VALID,91.404,VALID,113.645,VALID,18.781,VALID,101.0,VALID,1.096,
2017-07-30, 07:12:06,VALID,917.81,VALID,0.0,VALID,91.398,VALID,116.006,VALID,18.797,VALID,82.0,VALID,0.974,
2017-07-30, 07:13:06,VALID,917.805,VALID,0.0,VALID,91.556,VALID,118.477,VALID,18.804,VALID,82.0,VALID,1.074,
2017-07-30, 07:14:06,VALID,917.81,VALID,0.0,VALID,91.323,VALID,119.969,VALID,18.835,VALID,90.0,VALID,0.885,
2017-07-30, 07:15:06,VALID,917.817,VALID,0.0,VALID,90.933,VALID,121.854,VALID,18.883,VALID,104.0,VALID,0.959,
2017-07-30, 07:16:06,VALID,917.82,VALID,0.0,VALID,90.643,VALID,124.69,VALID,18.987,VALID,122.0,VALID,0.737,
2017-07-30, 07:17:06,VALID,917.825,VALID,0.0,VALID,90.711,VALID,128.697,VALID,19.093,VALID,123.0,VALID,1.028,
2017-07-30, 07:18:06,VALID,917.812,VALID,0.0,VALID,90.302,VALID,132.727,VALID,19.17,VALID,113.0,VALID,1.007,
2017-07-30, 07:19:06,VALID,917.823,VALID,0.0,VALID,90.493,VALID,139.307,VALID,19.251,VALID,121.0,VALID,0.879,
2017-07-30, 07:20:06,VALID,917.828,VALID,0.0,VALID,89.637,VALID,145.02,VALID,19.332,VALID,132.0,VALID,0.952,
2017-07-30, 07:21:06,VALID,917.831,VALID,0.0,VALID,89.911,VALID,150.418,VALID,19.427,VALID,123.0,VALID,0.804,
2017-07-30, 07:22:06,VALID,917.849,VALID,0.0,VALID,90.041,VALID,154.05,VALID,19.502,VALID,129.0,VALID,0.964,
2017-07-30, 07:23:06,VALID,917.853,VALID,0.0,VALID,90.184,VALID,152.73,VALID,19.617,VALID,122.0,VALID,1.18,
2017-07-30, 07:24:06,VALID,917.864,VALID,0.0,VALID,89.696,VALID,150.722,VALID,19.717,VALID,127.0,VALID,0.695,
2017-07-30, 07:25:06,VALID,917.876,VALID,0.0,VALID,89.444,VALID,148.001,VALID,19.788,VALID,139.0,VALID,1.017,
2017-07-30, 07:26:06,VALID,917.903,VALID,0.0,VALID,88.383,VALID,146.932,VALID,19.793,VALID,136.0,VALID,1.286,
2017-07-30, 07:27:06,VALID,917.928,VALID,0.0,VALID,87.732,VALID,148.679,VALID,19.784,VALID,145.0,VALID,1.615,
2017-07-30, 07:28:06,VALID,917.956,VALID,0.0,VALID,86.946,VALID,153.954,VALID,19.672,VALID,147.0,VALID,1.966,
2017-07-30, 07:29:06,VALID,917.981,VALID,0.0,VALID,87.217,VALID,161.095,VALID,19.484,VALID,146.0,VALID,2.119,
2017-07-30, 07:30:06,VALID,918.001,VALID,0.0,VALID,88.298,VALID,164.477,VALID,19.318,VALID,146.0,VALID,2.246,
2017-07-30, 07:31:06,VALID,917.999,VALID,0.0,VALID,88.715,VALID,164.237,VALID,19.209,VALID,148.0,VALID,2.059,
2017-07-30, 07:32:06,VALID,918.024,VALID,0.0,VALID,89.059,VALID,162.379,VALID,19.123,VALID,150.0,VALID,2.068,
2017-07-30, 07:33:06,VALID,918.031,VALID,0.0,VALID,89.047,VALID,168.211,VALID,19.108,VALID,143.0,VALID,2.041,
2017-07-30, 07:34:06,VALID,918.036,VALID,0.0,VALID,89.224,VALID,177.131,VALID,19.145,VALID,144.0,VALID,1.957,
2017-07-30, 07:35:06,VALID,918.048,VALID,0.0,VALID,89.083,VALID,181.87,VALID,19.204,VALID,143.0,VALID,1.717,
2017-07-30, 07:36:06,VALID,918.072,VALID,0.0,VALID,89.237,VALID,183.209,VALID,19.285,VALID,136.0,VALID,1.378,
2017-07-30, 07:37:06,VALID,918.092,VALID,0.0,VALID,89.833,VALID,187.759,VALID,19.39,VALID,130.0,VALID,1.259,
2017-07-30, 07:38:06,VALID,918.097,VALID,0.0,VALID,89.374,VALID,191.034,VALID,19.542,VALID,127.0,VALID,1.32,
2017-07-30, 07:39:06,VALID,918.118,VALID,0.0,VALID,89.861,VALID,199.636,VALID,19.706,VALID,123.0,VALID,0.969,
2017-07-30, 07:40:06,VALID,918.12,VALID,0.0,VALID,89.237,VALID,204.427,VALID,19.849,VALID,125.0,VALID,1.543,
2017-07-30, 07:41:06,VALID,918.137,VALID,0.0,VALID,88.108,VALID,209.844,VALID,19.955,VALID,126.0,VALID,1.346,
2017-07-30, 07:42:06,VALID,918.141,VALID,0.0,VALID,88.095,VALID,216.695,VALID,20.053,VALID,139.0,VALID,1.145,
2017-07-30, 07:43:06,VALID,918.138,VALID,0.0,VALID,87.097,VALID,220.172,VALID,20.076,VALID,137.0,VALID,1.005,
2017-07-30, 07:44:06,VALID,918.134,VALID,0.0,VALID,87.692,VALID,221.843,VALID,20.146,VALID,137.0,VALID,0.93,
2017-07-30, 07:45:06,VALID,918.123,VALID,0.0,VALID,86.947,VALID,224.23,VALID,20.216,VALID,143.0,VALID,1.09,
2017-07-30, 07:46:06,VALID,918.11,VALID,0.0,VALID,86.289,VALID,225.879,VALID,20.256,VALID,148.0,VALID,1.063,
2017-07-30, 07:47:06,VALID,918.109,VALID,0.0,VALID,85.943,VALID,234.499,VALID,20.28,VALID,151.0,VALID,1.246,
2017-07-30, 07:48:06,VALID,918.11,VALID,0.0,VALID,85.666,VALID,238.774,VALID,20.28,VALID,146.0,VALID,1.269,
2017-07-30, 07:49:06,VALID,918.123,VALID,0.0,VALID,85.348,VALID,245.006,VALID,20.278,VALID,143.0,VALID,1.232,
2017-07-30, 07:50:06,VALID,918.128,VALID,0.0,VALID,86.649,VALID,256.93,VALID,20.351,VALID,136.0,VALID,0.842,
2017-07-30, 07:51:06,VALID,918.138,VALID,0.0,VALID,86.224,VALID,262.903,VALID,20.472,VALID,132.0,VALID,0.893,
2017-07-30, 07:52:06,VALID,918.14,VALID,0.0,VALID,85.738,VALID,259.702,VALID,20.605,VALID,135.0,VALID,1.033,
2017-07-30, 07:53:06,VALID,918.125,VALID,0.0,VALID,84.28,VALID,262.286,VALID,20.696,VALID,123.0,VALID,0.738,
2017-07-30, 07:54:06,VALID,918.124,VALID,0.0,VALID,85.399,VALID,272.533,VALID,20.819,VALID,106.0,VALID,0.587,
2017-07-30, 07:55:06,VALID,918.116,VALID,0.0,VALID,86.593,VALID,283.709,VALID,20.978,VALID,85.0,VALID,0.52,
2017-07-30, 07:56:06,VALID,918.12,VALID,0.0,VALID,85.386,VALID,284.064,VALID,21.153,VALID,79.0,VALID,0.582,
2017-07-30, 07:57:06,VALID,918.135,VALID,0.0,VALID,84.893,VALID,285.854,VALID,21.311,VALID,101.0,VALID,0.703,
2017-07-30, 07:58:06,VALID,918.135,VALID,0.0,VALID,84.477,VALID,285.406,VALID,21.385,VALID,96.0,VALID,0.764,
2017-07-30, 07:59:06,VALID,918.155,VALID,0.0,VALID,83.858,VALID,291.68,VALID,21.453,VALID,119.0,VALID,0.544,
2017-07-30, 08:00:06,VALID,918.171,VALID,0.0,VALID,82.107,VALID,293.131,VALID,21.495,VALID,142.0,VALID,0.737,
2017-07-30, 08:01:06,VALID,918.18,VALID,0.0,VALID,83.554,VALID,291.274,VALID,21.535,VALID,129.0,VALID,0.637,
2017-07-30, 08:02:06,VALID,918.183,VALID,0.0,VALID,82.733,VALID,280.607,VALID,21.582,VALID,146.0,VALID,0.98,
2017-07-30, 08:03:06,VALID,918.199,VALID,0.0,VALID,81.912,VALID,288.933,VALID,21.529,VALID,158.0,VALID,1.266,
2017-07-30, 08:04:06,VALID,918.191,VALID,0.0,VALID,81.281,VALID,296.901,VALID,21.368,VALID,152.0,VALID,1.233,
2017-07-30, 08:05:06,VALID,918.184,VALID,0.0,VALID,81.9,VALID,295.586,VALID,21.211,VALID,155.0,VALID,1.092,
2017-07-30, 08:06:06,VALID,918.175,VALID,0.0,VALID,82.196,VALID,295.782,VALID,21.159,VALID,146.0,VALID,1.031,
2017-07-30, 08:07:06,VALID,918.168,VALID,0.0,VALID,82.436,VALID,297.122,VALID,21.133,VALID,147.0,VALID,1.132,
2017-07-30, 08:08:06,VALID,918.169,VALID,0.0,VALID,82.144,VALID,306.403,VALID,21.122,VALID,146.0,VALID,0.972,
2017-07-30, 08:09:06,VALID,918.173,VALID,0.0,VALID,81.663,VALID,315.269,VALID,21.114,VALID,152.0,VALID,1.041,
2017-07-30, 08:10:06,VALID,918.178,VALID,0.0,VALID,82.012,VALID,319.11,VALID,21.121,VALID,153.0,VALID,1.074,
2017-07-30, 08:11:06,VALID,918.185,VALID,0.0,VALID,82.169,VALID,324.831,VALID,21.139,VALID,153.0,VALID,1.177,
2017-07-30, 08:12:06,VALID,918.211,VALID,0.0,VALID,81.676,VALID,326.066,VALID,21.132,VALID,149.0,VALID,1.378,
2017-07-30, 08:13:06,VALID,918.234,VALID,0.0,VALID,81.997,VALID,321.9,VALID,21.149,VALID,146.0,VALID,1.218,
2017-07-30, 08:14:06,VALID,918.257,VALID,0.0,VALID,81.32,VALID,314.86,VALID,21.194,VALID,145.0,VALID,1.479,
2017-07-30, 08:15:06,VALID,918.267,VALID,0.0,VALID,80.973,VALID,317.306,VALID,21.206,VALID,147.0,VALID,1.363,
2017-07-30, 08:16:06,VALID,918.254,VALID,0.0,VALID,81.157,VALID,323.359,VALID,21.234,VALID,146.0,VALID,1.507,
2017-07-30, 08:17:06,VALID,918.25,VALID,0.0,VALID,80.163,VALID,330.156,VALID,21.184,VALID,154.0,VALID,1.504,
2017-07-30, 08:18:06,VALID,918.25,VALID,0.0,VALID,81.314,VALID,326.03,VALID,21.201,VALID,135.0,VALID,0.908,
2017-07-30, 08:19:06,VALID,918.25,VALID,0.0,VALID,81.356,VALID,320.299,VALID,21.371,VALID,148.0,VALID,0.992,
2017-07-30, 08:20:06,VALID,918.248,VALID,0.0,VALID,80.566,VALID,318.17,VALID,21.482,VALID,148.0,VALID,1.001,
2017-07-30, 08:21:06,VALID,918.261,VALID,0.0,VALID,80.385,VALID,324.188,VALID,21.556,VALID,158.0,VALID,1.275,
2017-07-30, 08:22:06,VALID,918.282,VALID,0.0,VALID,80.432,VALID,323.7,VALID,21.606,VALID,156.0,VALID,1.127,
2017-07-30, 08:23:06,VALID,918.309,VALID,0.0,VALID,80.98,VALID,325.979,VALID,21.665,VALID,148.0,VALID,0.984,
2017-07-30, 08:24:06,VALID,918.312,VALID,0.0,VALID,82.082,VALID,345.258,VALID,21.828,VALID,110.0,VALID,0.741,
2017-07-30, 08:25:06,VALID,918.319,VALID,0.0,VALID,80.603,VALID,346.97,VALID,22.005,VALID,139.0,VALID,1.233,
2017-07-30, 08:26:06,VALID,918.323,VALID,0.0,VALID,78.973,VALID,352.252,VALID,22.074,VALID,116.0,VALID,1.132,
2017-07-30, 08:27:06,VALID,918.316,VALID,0.0,VALID,79.698,VALID,355.014,VALID,22.108,VALID,86.0,VALID,1.101,
2017-07-30, 08:28:06,VALID,918.307,VALID,0.0,VALID,80.147,VALID,349.749,VALID,22.168,VALID,79.0,VALID,1.064,
2017-07-30, 08:29:06,VALID,918.317,VALID,0.0,VALID,80.865,VALID,345.236,VALID,22.267,VALID,73.0,VALID,1.128,
2017-07-30, 08:30:06,VALID,918.32,VALID,0.0,VALID,78.984,VALID,354.663,VALID,22.312,VALID,110.0,VALID,1.091,
2017-07-30, 08:31:06,VALID,918.303,VALID,0.0,VALID,79.345,VALID,363.399,VALID,22.354,VALID,117.0,VALID,1.087,
2017-07-30, 08:32:06,VALID,918.311,VALID,0.0,VALID,78.941,VALID,368.752,VALID,22.38,VALID,145.0,VALID,1.216,
2017-07-30, 08:33:06,VALID,918.323,VALID,0.0,VALID,77.729,VALID,371.959,VALID,22.315,VALID,146.0,VALID,1.548,
2017-07-30, 08:34:06,VALID,918.321,VALID,0.0,VALID,78.261,VALID,371.348,VALID,22.114,VALID,141.0,VALID,1.428,
2017-07-30, 08:35:06,VALID,918.316,VALID,0.0,VALID,78.788,VALID,369.711,VALID,21.964,VALID,143.0,VALID,1.768,
2017-07-30, 08:36:06,VALID,918.315,VALID,0.0,VALID,78.853,VALID,368.563,VALID,21.831,VALID,145.0,VALID,1.587,
2017-07-30, 08:37:06,VALID,918.314,VALID,0.0,VALID,80.416,VALID,374.272,VALID,21.763,VALID,146.0,VALID,1.671,
2017-07-30, 08:38:06,VALID,918.305,VALID,0.0,VALID,80.033,VALID,378.87,VALID,21.717,VALID,147.0,VALID,1.804,
2017-07-30, 08:39:06,VALID,918.314,VALID,0.0,VALID,80.529,VALID,393.48,VALID,21.663,VALID,145.0,VALID,1.784,
2017-07-30, 08:40:06,VALID,918.317,VALID,0.0,VALID,80.042,VALID,403.272,VALID,21.621,VALID,149.0,VALID,2.026,
2017-07-30, 08:41:06,VALID,918.345,VALID,0.0,VALID,79.981,VALID,414.863,VALID,21.629,VALID,150.0,VALID,1.962,
2017-07-30, 08:42:06,VALID,918.362,VALID,0.0,VALID,80.082,VALID,424.457,VALID,21.709,VALID,153.0,VALID,1.945,
2017-07-30, 08:43:06,VALID,918.39,VALID,0.0,VALID,79.726,VALID,424.702,VALID,21.789,VALID,155.0,VALID,2.006,
2017-07-30, 08:44:06,VALID,918.411,VALID,0.0,VALID,80.042,VALID,415.74,VALID,21.905,VALID,156.0,VALID,1.935,
2017-07-30, 08:45:06,VALID,918.411,VALID,0.0,VALID,79.06,VALID,422.172,VALID,21.988,VALID,158.0,VALID,2.243,
2017-07-30, 08:46:06,VALID,918.443,VALID,0.0,VALID,77.857,VALID,423.047,VALID,22.027,VALID,148.0,VALID,2.039,
2017-07-30, 08:47:06,VALID,918.454,VALID,0.0,VALID,78.311,VALID,431.504,VALID,22.154,VALID,162.0,VALID,2.108,
2017-07-30, 08:48:06,VALID,918.448,VALID,0.0,VALID,77.767,VALID,432.467,VALID,22.148,VALID,147.0,VALID,1.723,
2017-07-30, 08:49:06,VALID,918.46,VALID,0.0,VALID,77.652,VALID,433.009,VALID,22.162,VALID,147.0,VALID,1.544,
2017-07-30, 08:50:06,VALID,918.452,VALID,0.0,VALID,78.135,VALID,432.555,VALID,22.345,VALID,152.0,VALID,1.148,
2017-07-30, 08:51:06,VALID,918.462,VALID,0.0,VALID,77.075,VALID,438.305,VALID,22.464,VALID,155.0,VALID,1.548,
2017-07-30, 08:52:06,VALID,918.474,VALID,0.0,VALID,77.9,VALID,438.931,VALID,22.502,VALID,152.0,VALID,1.471,
2017-07-30, 08:53:06,VALID,918.473,VALID,0.0,VALID,78.663,VALID,444.75,VALID,22.536,VALID,139.0,VALID,1.358,
2017-07-30, 08:54:06,VALID,918.487,VALID,0.0,VALID,77.863,VALID,447.756,VALID,22.604,VALID,167.0,VALID,1.004,
2017-07-30, 08:55:06,VALID,918.501,VALID,0.0,VALID,78.063,VALID,447.268,VALID,22.751,VALID,154.0,VALID,1.168,
2017-07-30, 08:56:06,VALID,918.518,VALID,0.0,VALID,77.04,VALID,446.981,VALID,22.68,VALID,158.0,VALID,1.233,
2017-07-30, 08:57:06,VALID,918.528,VALID,0.0,VALID,78.021,VALID,440.645,VALID,22.689,VALID,177.0,VALID,1.023,
2017-07-30, 08:58:06,VALID,918.533,VALID,0.0,VALID,77.456,VALID,441.947,VALID,22.754,VALID,148.0,VALID,1.154,
2017-07-30, 08:59:06,VALID,918.539,VALID,0.0,VALID,77.205,VALID,442.233,VALID,22.833,VALID,162.0,VALID,1.294,
2017-07-30, 09:00:06,VALID,918.534,VALID,0.0,VALID,77.908,VALID,446.854,VALID,22.951,VALID,145.0,VALID,1.07,
2017-07-30, 09:01:06,VALID,918.543,VALID,0.0,VALID,76.713,VALID,450.6,VALID,22.975,VALID,156.0,VALID,1.355,
2017-07-30, 09:02:06,VALID,918.539,VALID,0.0,VALID,77.528,VALID,449.203,VALID,22.865,VALID,137.0,VALID,1.063,
2017-07-30, 09:03:06,VALID,918.536,VALID,0.0,VALID,76.443,VALID,439.286,VALID,23.028,VALID,162.0,VALID,1.204,
2017-07-30, 09:04:06,VALID,918.526,VALID,0.0,VALID,74.695,VALID,451.839,VALID,23.077,VALID,160.0,VALID,1.295,
2017-07-30, 09:05:06,VALID,918.504,VALID,0.0,VALID,75.928,VALID,465.232,VALID,23.103,VALID,176.0,VALID,0.88,
2017-07-30, 09:06:06,VALID,918.487,VALID,0.0,VALID,75.727,VALID,472.945,VALID,23.315,VALID,142.0,VALID,0.78,
2017-07-30, 09:07:06,VALID,918.483,VALID,0.0,VALID,74.865,VALID,471.469,VALID,23.535,VALID,127.0,VALID,1.055,
2017-07-30, 09:08:06,VALID,918.462,VALID,0.0,VALID,74.326,VALID,473.816,VALID,23.727,VALID,149.0,VALID,0.841,
2017-07-30, 09:09:06,VALID,918.454,VALID,0.0,VALID,72.625,VALID,464.54,VALID,23.871,VALID,149.0,VALID,1.118,
2017-07-30, 09:10:06,VALID,918.434,VALID,0.0,VALID,70.576,VALID,470.927,VALID,23.731,VALID,141.0,VALID,0.872,
2017-07-30, 09:11:06,VALID,918.414,VALID,0.0,VALID,70.471,VALID,469.18,VALID,23.693,VALID,139.0,VALID,0.87,
2017-07-30, 09:12:06,VALID,918.402,VALID,0.0,VALID,70.741,VALID,475.769,VALID,23.763,VALID,154.0,VALID,0.801,
2017-07-30, 09:13:06,VALID,918.424,VALID,0.0,VALID,70.538,VALID,470.06,VALID,23.906,VALID,173.0,VALID,0.41,
2017-07-30, 09:14:06,VALID,918.431,VALID,0.0,VALID,70.406,VALID,476.734,VALID,24.085,VALID,158.0,VALID,1.009,
2017-07-30, 09:15:06,VALID,918.457,VALID,0.0,VALID,69.358,VALID,486.868,VALID,24.156,VALID,183.0,VALID,1.041,
2017-07-30, 09:16:06,VALID,918.466,VALID,0.0,VALID,67.579,VALID,520.98,VALID,24.259,VALID,187.0,VALID,1.242,
2017-07-30, 09:17:06,VALID,918.46,VALID,0.0,VALID,67.843,VALID,547.08,VALID,24.378,VALID,173.0,VALID,0.674,
2017-07-30, 09:18:06,VALID,918.468,VALID,0.0,VALID,68.367,VALID,559.596,VALID,24.429,VALID,175.0,VALID,0.93,
2017-07-30, 09:19:06,VALID,918.469,VALID,0.0,VALID,68.978,VALID,569.307,VALID,24.459,VALID,143.0,VALID,1.013,
2017-07-30, 09:20:06,VALID,918.462,VALID,0.0,VALID,68.701,VALID,576.52,VALID,24.517,VALID,136.0,VALID,0.857,
2017-07-30, 09:21:06,VALID,918.436,VALID,0.0,VALID,68.322,VALID,579.542,VALID,24.551,VALID,165.0,VALID,1.172,
2017-07-30, 09:22:06,VALID,918.435,VALID,0.0,VALID,68.334,VALID,580.255,VALID,24.544,VALID,157.0,VALID,1.143,
2017-07-30, 09:23:06,VALID,918.427,VALID,0.0,VALID,68.302,VALID,573.641,VALID,24.556,VALID,167.0,VALID,1.009,
2017-07-30, 09:24:06,VALID,918.43,VALID,0.0,VALID,67.511,VALID,576.819,VALID,24.459,VALID,155.0,VALID,1.328,
2017-07-30, 09:25:06,VALID,918.436,VALID,0.0,VALID,68.366,VALID,573.8,VALID,24.367,VALID,163.0,VALID,1.269,
2017-07-30, 09:26:06,VALID,918.455,VALID,0.0,VALID,68.332,VALID,560.229,VALID,24.162,VALID,154.0,VALID,1.207,
2017-07-30, 09:27:06,VALID,918.465,VALID,0.0,VALID,69.332,VALID,544.819,VALID,23.947,VALID,136.0,VALID,0.877,
2017-07-30, 09:28:06,VALID,918.479,VALID,0.0,VALID,69.561,VALID,542.241,VALID,24.122,VALID,140.0,VALID,0.988,
2017-07-30, 09:29:06,VALID,918.492,VALID,0.0,VALID,65.479,VALID,530.859,VALID,24.194,VALID,155.0,VALID,1.211,
2017-07-30, 09:30:06,VALID,918.49,VALID,0.0,VALID,68.091,VALID,518.156,VALID,24.04,VALID,154.0,VALID,1.259,
2017-07-30, 09:31:06,VALID,918.488,VALID,0.0,VALID,69.237,VALID,516.992,VALID,24.082,VALID,140.0,VALID,1.188,
2017-07-30, 09:32:06,VALID,918.482,VALID,0.0,VALID,68.705,VALID,528.041,VALID,24.237,VALID,132.0,VALID,1.205,
2017-07-30, 09:33:06,VALID,918.475,VALID,0.0,VALID,68.203,VALID,555.922,VALID,24.307,VALID,144.0,VALID,1.127,
2017-07-30, 09:34:06,VALID,918.468,VALID,0.0,VALID,68.165,VALID,580.258,VALID,24.35,VALID,145.0,VALID,1.125,
2017-07-30, 09:35:06,VALID,918.446,VALID,0.0,VALID,66.943,VALID,597.341,VALID,24.334,VALID,136.0,VALID,0.841,
2017-07-30, 09:36:06,VALID,918.447,VALID,0.0,VALID,66.323,VALID,602.094,VALID,24.485,VALID,159.0,VALID,1.13,
2017-07-30, 09:37:06,VALID,918.442,VALID,0.0,VALID,66.919,VALID,599.656,VALID,24.598,VALID,196.0,VALID,0.349,
2017-07-30, 09:38:06,VALID,918.448,VALID,0.0,VALID,65.284,VALID,605.068,VALID,24.714,VALID,145.0,VALID,1.012,
2017-07-30, 09:39:06,VALID,918.451,VALID,0.0,VALID,65.926,VALID,607.697,VALID,24.75,VALID,161.0,VALID,1.229,
2017-07-30, 09:40:06,VALID,918.457,VALID,0.0,VALID,64.859,VALID,607.747,VALID,24.78,VALID,156.0,VALID,0.896,
2017-07-30, 09:41:06,VALID,918.453,VALID,0.0,VALID,64.338,VALID,606.209,VALID,24.858,VALID,158.0,VALID,1.139,
2017-07-30, 09:42:06,VALID,918.447,VALID,0.0,VALID,63.566,VALID,605.601,VALID,24.902,VALID,147.0,VALID,0.716,
2017-07-30, 09:43:06,VALID,918.451,VALID,0.0,VALID,63.325,VALID,602.143,VALID,25.029,VALID,149.0,VALID,1.622,
2017-07-30, 09:44:06,VALID,918.449,VALID,0.0,VALID,62.973,VALID,594.267,VALID,24.877,VALID,142.0,VALID,1.483,
2017-07-30, 09:45:06,VALID,918.45,VALID,0.0,VALID,64.1,VALID,595.291,VALID,24.818,VALID,154.0,VALID,1.295,
2017-07-30, 09:46:06,VALID,918.455,VALID,0.0,VALID,64.41,VALID,593.628,VALID,24.975,VALID,195.0,VALID,1.535,
2017-07-30, 09:47:06,VALID,918.462,VALID,0.0,VALID,64.6,VALID,594.882,VALID,25.167,VALID,198.0,VALID,1.269,
2017-07-30, 09:48:06,VALID,918.458,VALID,0.0,VALID,65.008,VALID,603.776,VALID,25.317,VALID,194.0,VALID,0.611,
2017-07-30, 09:49:06,VALID,918.479,VALID,0.0,VALID,64.852,VALID,613.111,VALID,25.461,VALID,179.0,VALID,0.845,
2017-07-30, 09:50:06,VALID,918.472,VALID,0.0,VALID,63.14,VALID,648.547,VALID,25.578,VALID,191.0,VALID,0.982,
2017-07-30, 09:51:06,VALID,918.458,VALID,0.0,VALID,62.121,VALID,665.255,VALID,25.698,VALID,204.0,VALID,1.083,
2017-07-30, 09:52:06,VALID,918.449,VALID,0.0,VALID,61.598,VALID,671.341,VALID,25.783,VALID,188.0,VALID,1.015,
2017-07-30, 09:53:06,VALID,918.431,VALID,0.0,VALID,62.123,VALID,667.66,VALID,25.897,VALID,161.0,VALID,0.893,
2017-07-30, 09:54:06,VALID,918.417,VALID,0.0,VALID,60.868,VALID,659.481,VALID,26.078,VALID,201.0,VALID,1.008,
2017-07-30, 09:55:06,VALID,918.406,VALID,0.0,VALID,60.221,VALID,671.43,VALID,26.098,VALID,181.0,VALID,0.7,
2017-07-30, 09:56:06,VALID,918.389,VALID,0.0,VALID,59.401,VALID,676.395,VALID,26.166,VALID,224.0,VALID,0.066,
2017-07-30, 09:57:06,VALID,918.393,VALID,0.0,VALID,59.107,VALID,685.023,VALID,26.261,VALID,159.0,VALID,0.734,
2017-07-30, 09:58:06,VALID,918.379,VALID,0.0,VALID,58.773,VALID,684.661,VALID,26.136,VALID,183.0,VALID,0.934,
2017-07-30, 09:59:06,VALID,918.383,VALID,0.0,VALID,58.676,VALID,689.197,VALID,26.167,VALID,186.0,VALID,1.32,
2017-07-30, 10:00:06,VALID,918.365,VALID,0.0,VALID,58.085,VALID,693.639,VALID,26.302,VALID,193.0,VALID,0.896,
2017-07-30, 10:01:06,VALID,918.34,VALID,0.0,VALID,59.045,VALID,706.388,VALID,26.382,VALID,197.0,VALID,0.872,
2017-07-30, 10:02:06,VALID,918.322,VALID,0.0,VALID,59.511,VALID,716.043,VALID,26.314,VALID,190.0,VALID,0.552,
2017-07-30, 10:03:06,VALID,918.31,VALID,0.0,VALID,60.798,VALID,721.892,VALID,26.299,VALID,182.0,VALID,1.222,
2017-07-30, 10:04:06,VALID,918.282,VALID,0.0,VALID,59.515,VALID,732.657,VALID,26.423,VALID,193.0,VALID,1.248,
2017-07-30, 10:05:06,VALID,918.26,VALID,0.0,VALID,59.856,VALID,743.105,VALID,26.498,VALID,153.0,VALID,1.261,
2017-07-30, 10:06:06,VALID,918.243,VALID,0.0,VALID,60.588,VALID,743.895,VALID,26.344,VALID,101.0,VALID,0.434,
2017-07-30, 10:07:06,VALID,918.224,VALID,0.0,VALID,60.927,VALID,749.27,VALID,26.448,VALID,164.0,VALID,1.009,
2017-07-30, 10:08:06,VALID,918.208,VALID,0.0,VALID,59.309,VALID,754.376,VALID,26.591,VALID,180.0,VALID,1.182,
2017-07-30, 10:09:06,VALID,918.203,VALID,0.0,VALID,57.952,VALID,757.368,VALID,26.71,VALID,202.0,VALID,1.266,
2017-07-30, 10:10:06,VALID,918.174,VALID,0.0,VALID,58.548,VALID,758.186,VALID,26.703,VALID,206.0,VALID,0.978,
2017-07-30, 10:11:06,VALID,918.162,VALID,0.0,VALID,58.272,VALID,759.487,VALID,26.702,VALID,183.0,VALID,1.058,
2017-07-30, 10:12:06,VALID,918.144,VALID,0.0,VALID,58.744,VALID,757.799,VALID,26.696,VALID,178.0,VALID,1.037,
2017-07-30, 10:13:06,VALID,918.103,VALID,0.0,VALID,59.407,VALID,752.27,VALID,26.722,VALID,167.0,VALID,0.846,
2017-07-30, 10:14:06,VALID,918.088,VALID,0.0,VALID,59.102,VALID,752.461,VALID,26.71,VALID,197.0,VALID,0.857,
2017-07-30, 10:15:06,VALID,918.057,VALID,0.0,VALID,57.899,VALID,756.641,VALID,26.755,VALID,147.0,VALID,0.344,
2017-07-30, 10:16:06,VALID,918.031,VALID,0.0,VALID,59.658,VALID,759.282,VALID,26.832,VALID,211.0,VALID,0.779,
2017-07-30, 10:17:06,VALID,918.021,VALID,0.0,VALID,59.666,VALID,755.633,VALID,26.953,VALID,196.0,VALID,1.044,
2017-07-30, 10:18:06,VALID,918.021,VALID,0.0,VALID,58.531,VALID,747.107,VALID,26.844,VALID,141.0,VALID,1.599,
2017-07-30, 10:19:06,VALID,918.017,VALID,0.0,VALID,59.486,VALID,750.343,VALID,26.544,VALID,175.0,VALID,0.754,
2017-07-30, 10:20:06,VALID,918.009,VALID,0.0,VALID,59.875,VALID,755.458,VALID,26.39,VALID,166.0,VALID,0.158,
2017-07-30, 10:21:06,VALID,917.991,VALID,0.0,VALID,59.336,VALID,759.34,VALID,26.517,VALID,188.0,VALID,0.267,
2017-07-30, 10:22:06,VALID,917.978,VALID,0.0,VALID,59.299,VALID,759.097,VALID,26.725,VALID,182.0,VALID,1.548,
2017-07-30, 10:23:06,VALID,917.976,VALID,0.0,VALID,59.116,VALID,758.277,VALID,26.837,VALID,195.0,VALID,1.748,
2017-07-30, 10:24:06,VALID,917.942,VALID,0.0,VALID,60.679,VALID,751.546,VALID,26.924,VALID,203.0,VALID,1.083,
2017-07-30, 10:25:06,VALID,917.922,VALID,0.0,VALID,60.337,VALID,745.52,VALID,27.08,VALID,206.0,VALID,1.114,
2017-07-30, 10:26:06,VALID,917.906,VALID,0.0,VALID,57.927,VALID,746.381,VALID,27.174,VALID,225.0,VALID,0.741,
2017-07-30, 10:27:06,VALID,917.898,VALID,0.0,VALID,57.201,VALID,753.558,VALID,27.264,VALID,215.0,VALID,1.362,
2017-07-30, 10:28:06,VALID,917.888,VALID,0.0,VALID,56.737,VALID,754.396,VALID,27.163,VALID,219.0,VALID,1.282,
2017-07-30, 10:29:06,VALID,917.873,VALID,0.0,VALID,57.627,VALID,753.361,VALID,27.029,VALID,178.0,VALID,0.909,
2017-07-30, 10:30:06,VALID,917.879,VALID,0.0,VALID,56.093,VALID,744.828,VALID,27.145,VALID,203.0,VALID,1.606,
2017-07-30, 10:31:06,VALID,917.886,VALID,0.0,VALID,55.158,VALID,738.2,VALID,27.138,VALID,210.0,VALID,1.456,
2017-07-30, 10:32:06,VALID,917.881,VALID,0.0,VALID,53.952,VALID,732.302,VALID,27.175,VALID,200.0,VALID,0.841,
2017-07-30, 10:33:06,VALID,917.89,VALID,0.0,VALID,54.103,VALID,734.86,VALID,27.345,VALID,180.0,VALID,1.203,
2017-07-30, 10:34:06,VALID,917.873,VALID,0.0,VALID,49.843,VALID,739.015,VALID,27.484,VALID,190.0,VALID,0.536,
2017-07-30, 10:35:06,VALID,917.845,VALID,0.0,VALID,48.975,VALID,739.366,VALID,27.593,VALID,264.0,VALID,0.58,